Location: N�rnberg
(49.4489°N, 11.0797°E)
Time: 23:24:12
(UTC+01:00)

ISS - Pass Details

Date: 11 November 2017
Orbit: 401 x 407 km, 51.6° (Epoch: 25 November)

Event Time Altitude Azimuth Distance (km) Brightness Sun altitude
Exits shadow 06:42:59 - 286° (WNW) 1,577 -1.5 -6.4°
Reaches altitude 10° 06:43:17 10° 285° (WNW) 1,457 -1.7 -6.4°
Maximum altitude 06:46:29 55° 207° (SSW) 490 -3.4 -5.9°
Drops below altitude 10° 06:49:40 10° 128° (SE) 1,452 0.5 -5.4°
Sets 06:51:46 0° 124° (SE) 2,308 2.1 -5.1°
